726  
ASUS43 KOAX 210010  
RWRNE  
 
WEATHER ROUNDUP FOR NEBRASKA  
NATIONAL WEATHER SERVICE OMAHA NE  
600 PM CST MON NOV 20 2017  
 
NOTES: SATELLITE DATA IS BEING USED TO AUGMENT CLOUD COVER ABOVE  
12000 FEET.  
"FAIR" INDICATES FEW OR NO CLOUDS BELOW 12,000 FEET WITH NO  
SIGNIFICANT WEATHER AND/OR S TO VISIBILITY
.  
 
 
NEZ001>004-019>022-054>056-210100-  
NEBRASKA PANHANDLE  
 
CITY SKY/WX TMP DP RH WIND PRES REMARKS
 
SCOTTSBLUFF CLOUDY 54 16 22 NW13 29.79R  
6HR MIN TEMP: 54; 6HR MAX TEMP: 63;  
 
ALLIANCE CLOUDY 53 23 31 W18G29 29.75R  
6HR MIN TEMP: 52; 6HR MAX TEMP: 62;  
 
CHADRON CLOUDY 48 23 37 W5 29.75R  
6HR MIN TEMP: 48; 6HR MAX TEMP: 63;  
 
GORDON FAIR 48 19 32 W9 29.72R  
6HR MIN TEMP: 48; 6HR MAX TEMP: 62;  
 
KIMBALL CLOUDY 54 15 21 NW22G28 29.81F  
SIDNEY CLOUDY 53 17 24 NW13 29.82R  
6HR MIN TEMP: 53; 6HR MAX TEMP: 66;  
 

 
 
NEZ057>060-069>072-079>082-210100-  
SOUTHWEST NEBRASKA  
 
CITY SKY/WX TMP DP RH WIND PRES REMARKS
 
NORTH PLATTE CLOUDY 51 23 33 NW6 29.71R  
6HR MIN TEMP: 51; 6HR MAX TEMP: 67;  
 
IMPERIAL CLOUDY 59 17 19 NW9 29.76R  
6HR MIN TEMP: 59; 6HR MAX TEMP: 72;  
 
LEXINGTON CLOUDY 51 25 36 NW8 29.69R  
MCCOOK CLOUDY 58 21 24 NW9 29.71R  
6HR MIN TEMP: 58; 6HR MAX TEMP: 73;  
 
OGALLALA CLOUDY 58 20 23 NW13 29.75R  

 
 
NEZ005>010-023>029-035>040-094-210100-  
NORTH CENTRAL NEBRASKA  
 
CITY SKY/WX TMP DP RH WIND PRES REMARKS
 
VALENTINE CLOUDY 48 21 34 W8 29.68R  
6HR MIN TEMP: 47; 6HR MAX TEMP: 69;  
 
AINSWORTH CLEAR 51 21 30 NW8 29.67R  
BROKEN BOW CLOUDY 52 22 30 NW9 29.66R  
6HR MIN TEMP: 51; 6HR MAX TEMP: 68;  
 
O'NEILL CLEAR 49 23 35 CALM 29.63R  
ORD CLOUDY 51 20 29 NW3 29.63R  
6HR MIN TEMP: 49; 6HR MAX TEMP: 67;  
 
THEDFORD CLOUDY 49 20 31 W7 29.70R  

 
 
NEZ041-046>049-061>064-073>077-083>087-210100-  
SOUTH CENTRAL NEBRASKA  
 
CITY SKY/WX TMP DP RH WIND PRES REMARKS
 
GRAND ISLAND CLOUDY 49 31 49 W9 29.66R  
6HR MIN TEMP: 49; 6HR MAX TEMP: 64;  
 
AURORA CLOUDY 47 26 43 W8 29.66R  
HASTINGS CLOUDY 51 24 34 CALM 29.67R  
6HR MIN TEMP: 51; 6HR MAX TEMP: 64;  
 
HEBRON CLOUDY 50 27 40 SW3 29.66R  
HOLDREGE CLOUDY 57 24 28 W8 29.68R  
KEARNEY CLOUDY 56 21 25 W9 29.67R  
YORK CLOUDY 48 27 43 SW6 29.65R  

 
 
NEZ011>018-030>034-042>045-210100-  
NORTHEAST NEBRASKA  
 
CITY SKY/WX TMP DP RH WIND PRES REMARKS
 
NORFOLK CLOUDY 51 22 31 NW3 29.61R  
6HR MIN TEMP: 51; 6HR MAX TEMP: 63;  
 
ALBION CLEAR 49 22 34 NW3 29.63R  
BLAIR CLEAR 48 29 47 S7 29.63R  
COLUMBUS CLEAR 41 27 57 W3 29.63R  
FREMONT CLEAR 52 26 37 CALM 29.63R  
TEKAMAH PTCLDY 47 28 47 S9 29.62R  
6HR MIN TEMP: 47; 6HR MAX TEMP: 59;  
 
WAYNE PTCLDY 39 24 53 CALM 29.61R  

 
 
NEZ050>053-065>068-078-088>093-210100-  
SOUTHEAST NEBRASKA  
 
CITY SKY/WX TMP DP RH WIND PRES REMARKS
 
LINCOLN CLEAR 51 26 37 SW8 29.65R  
6HR MIN TEMP: 51; 6HR MAX TEMP: 61;  
 
OMAHA EPPLEY PTCLDY 50 28 42 S9 29.64R  
6HR MIN TEMP: 46; 6HR MAX TEMP: 59;  
 
BEATRICE CLOUDY 52 28 38 SW10 29.66R  
FALLS CITY CLOUDY 56 28 34 S15 29.64F  
6HR MIN TEMP: 56; 6HR MAX TEMP: 62;  
 
NEBRASKA CITY MOCLDY 51 28 41 SW9 29.65R  
PLATTSMOUTH PTCLDY 51 28 41 S9 29.64R  

 
 
NEZ044-045-051>053-067-210100-  
OMAHA AREA  
 
CITY SKY/WX TMP DP RH WIND PRES REMARKS
 
OMAHA EPPLEY PTCLDY 50 28 42 S9 29.64R  
6HR MIN TEMP: 46; 6HR MAX TEMP: 59;  
 
BLAIR CLEAR 48 29 47 S7 29.63R  
FREMONT CLEAR 52 26 37 CALM 29.63R  
MILLARD CLEAR 52 29 41 SE3 29.64R  
OFFUTT AFB CLEAR 40 27 59 E5 29.64R  
PLATTSMOUTH PTCLDY 51 28 41 S9 29.64R  
WAHOO FAIR 50 27 39 SW8 29.63R  

 
 
 
CLICK HERE TO GO TO PREVIOUS BULLETINS.

The Nexlab NE Page Main Text Page